DW5678 Kavala GR current weather conditions

sailwx.info

Wind from 221 at 1 knots gusting 7

Air temperature 32.8° C
Dewpoint 13.4° C

Last reported at 2017-Aug-19 08:58 UTC.
Time now 2017-Aug-19 09:24 UTC

Location: N 40°56' E 024°24'.
View on Google Maps.

See reports from other nearby stations

  
Tides and Currents Weather Stations Pressure Air Temp Water Temp Dewpoint Dewpoint Depression Visibility Wind Speed Wind Dir Waves Ship Positions
date/time (UTC)wind fromknots sea level pressurealtimeterstation pressurevisibilityair tempwater tempwave heightnotes
2017-Aug-19 09:08 166 32.2
2017-Aug-19 08:58 221 1 gusting 7 32.8
2017-Aug-19 08:48 275 3 gusting 10 32.8
2017-Aug-19 08:38 245 2 gusting 7 32.2
2017-Aug-19 08:28 113 1 gusting 11 31.7
2017-Aug-19 08:18 208 0 gusting 12 31.1
2017-Aug-19 08:08 279 4 gusting 13 30.6
2017-Aug-19 07:58 266 4 gusting 11 30.0
2017-Aug-19 07:48 266 4 gusting 10 30.6
2017-Aug-19 07:38 267 4 gusting 13 31.1
2017-Aug-19 07:28 065 0 gusting 13 31.7
2017-Aug-19 07:18 317 2 gusting 10 31.7
2017-Aug-19 07:08 266 5 gusting 10 30.0
2017-Aug-19 06:58 263 3 gusting 12 30.0
2017-Aug-19 06:48 221 7 gusting 11 28.9
2017-Aug-19 06:38 302 5 gusting 13 28.9
2017-Aug-19 06:28 326 5 gusting 12 28.3
2017-Aug-19 06:18 304 2 gusting 6 29.4
2017-Aug-19 06:08 347 1 gusting 7 30.6
2017-Aug-19 05:58 018 4 gusting 10 30.6
2017-Aug-19 05:48 347 1 gusting 6 30.0
2017-Aug-19 05:38 353 1 gusting 6 30.0
2017-Aug-19 05:28 344 1 gusting 6 30.0
2017-Aug-19 05:18 019 4 gusting 6 30.0
2017-Aug-19 05:08 033 1 gusting 6 30.0
2017-Aug-19 04:58 057 2 gusting 8 29.4
2017-Aug-19 04:48 025 2 gusting 8 29.4
2017-Aug-19 04:38 057 3 gusting 8 28.9
2017-Aug-19 04:28 020 2 gusting 8 28.9
2017-Aug-19 04:18 019 2 gusting 6 28.3
2017-Aug-19 04:08 007 3 gusting 10 28.3
2017-Aug-19 03:58 028 4 gusting 6 27.8
2017-Aug-19 03:48 005 0 gusting 1 26.7
2017-Aug-19 03:38 267 26.7
2017-Aug-19 03:28 267 26.7
2017-Aug-19 03:18 267 26.7
2017-Aug-19 03:08 267 27.2
2017-Aug-19 02:58 215 27.2
2017-Aug-19 02:48 27.8
2017-Aug-19 02:38 254 0 gusting 8 27.2
2017-Aug-19 02:28 304 4 gusting 7 27.8
2017-Aug-19 02:18 357 1 gusting 5 28.3
2017-Aug-19 02:08 350 1 gusting 4 28.3
2017-Aug-19 01:58 065 26.7
2017-Aug-19 01:48 065 27.2
2017-Aug-19 01:38 065 27.2
2017-Aug-19 01:28 065 26.7
2017-Aug-19 01:18 065 26.7
2017-Aug-19 01:08 065 26.7
2017-Aug-19 00:58 065 27.2
2017-Aug-19 00:48 065 27.2
2017-Aug-19 00:38 065 27.2
2017-Aug-19 00:28 065 27.2
2017-Aug-19 00:18 065 27.8
2017-Aug-19 00:08 065 27.2
2017-Aug-18 23:58 065 27.2
2017-Aug-18 23:48 065 27.2
2017-Aug-18 23:38 065 27.8
2017-Aug-18 23:28 065 27.8
2017-Aug-18 23:18 065 27.8
2017-Aug-18 23:08 065 27.8
2017-Aug-18 22:58 065 27.8
2017-Aug-18 22:48 005 27.8
2017-Aug-18 22:38 005 27.8
2017-Aug-18 22:28 005 28.3
2017-Aug-18 22:18 005 0 gusting 2 27.8
2017-Aug-18 22:08 005 28.3
2017-Aug-18 21:58 005 28.3
2017-Aug-18 21:48 005 28.9
2017-Aug-18 21:38 005 0 gusting 1 28.3
2017-Aug-18 21:28 011 28.3
2017-Aug-18 21:18 011 29.4
2017-Aug-18 21:08 005 30.0
2017-Aug-18 20:58 30.0
2017-Aug-18 20:48 005 29.4
2017-Aug-18 20:38 311 0 gusting 2 30.0
2017-Aug-18 20:28 346 0 gusting 4 30.6
2017-Aug-18 20:18 012 1 gusting 6 30.6
2017-Aug-18 20:08 038 2 gusting 6 30.6
2017-Aug-18 19:58 010 0 gusting 6 30.6
2017-Aug-18 19:48 007 0 gusting 4 30.6
2017-Aug-18 19:38 355 1 gusting 2 30.6
2017-Aug-18 19:28 355 30.6
2017-Aug-18 19:18 355 1 gusting 4 31.1
2017-Aug-18 19:08 036 2 gusting 6 31.1
2017-Aug-18 18:58 028 5 gusting 11 31.1
2017-Aug-18 18:48 005 2 gusting 7 31.1
2017-Aug-18 18:38 045 4 gusting 10 31.7
2017-Aug-18 18:28 037 6 gusting 13 31.7
2017-Aug-18 18:18 040 5 gusting 11 31.1
2017-Aug-18 18:08 021 4 gusting 7 31.1
2017-Aug-18 17:58 060 1 gusting 6 30.6
2017-Aug-18 17:48 344 0 gusting 2 30.6
2017-Aug-18 17:38 355 30.6
2017-Aug-18 17:28 113 31.1
2017-Aug-18 17:18 113 30.6
2017-Aug-18 17:08 113 30.6
2017-Aug-18 16:58 113 31.1
2017-Aug-18 16:48 113 31.1
2017-Aug-18 16:38 241 0 gusting 1 31.7
2017-Aug-18 16:28 241 32.2
2017-Aug-18 16:18 241 32.8
2017-Aug-18 16:08 241 32.2
2017-Aug-18 15:58 241 32.2
2017-Aug-18 15:48 241 32.8
2017-Aug-18 15:38 241 0 gusting 1 32.8
2017-Aug-18 15:28 241 32.2
2017-Aug-18 15:18 241 0 gusting 1 31.7
2017-Aug-18 15:08 241 31.7
2017-Aug-18 14:58 241 1 gusting 4 31.7
2017-Aug-18 14:48 234 0 gusting 2 32.2
2017-Aug-18 14:38 210 3 gusting 4 32.2
2017-Aug-18 14:28 219 2 gusting 4 31.7
2017-Aug-18 14:18 209 2 gusting 6 32.2
2017-Aug-18 14:08 208 32.2
2017-Aug-18 13:58 195 1 gusting 5 31.7
2017-Aug-18 13:48 230 1 gusting 4 31.7
2017-Aug-18 13:38 163 0 gusting 4 31.7
2017-Aug-18 13:28 199 0 gusting 5 32.2
2017-Aug-18 13:18 125 0 gusting 6 32.8
2017-Aug-18 13:08 204 1 gusting 5 33.3
2017-Aug-18 12:58 204 1 gusting 6 33.3
2017-Aug-18 12:48 193 1 gusting 5 32.8
2017-Aug-18 12:38 211 2 gusting 5 31.1
2017-Aug-18 12:28 205 0 gusting 6 31.1
2017-Aug-18 12:18 226 2 gusting 6 31.7
2017-Aug-18 12:08 222 2 gusting 6 31.7
2017-Aug-18 11:58 227 1 gusting 6 32.8
2017-Aug-18 11:48 209 1 gusting 6 32.8
2017-Aug-18 11:38 196 1 gusting 4 32.2
2017-Aug-18 11:28 234 32.2
2017-Aug-18 11:18 211 0 gusting 4 32.2
2017-Aug-18 11:08 155 1 gusting 6 32.2
2017-Aug-18 10:58 180 2 gusting 6 32.8
2017-Aug-18 10:48 220 1 gusting 6 33.3
2017-Aug-18 10:38 233 4 gusting 6 32.8
2017-Aug-18 10:28 240 1 gusting 5 32.8
2017-Aug-18 10:18 219 3 gusting 6 31.7
2017-Aug-18 10:08 186 5 gusting 6 31.7
2017-Aug-18 09:58 209 4 gusting 6 31.7
2017-Aug-18 09:48 217 4 gusting 7 31.7
2017-Aug-18 09:38 167 4 gusting 6 31.7
2017-Aug-18 09:28 176 2 gusting 5 32.2
2017-Aug-18 09:18 241 0 gusting 5 32.2
2017-Aug-18 09:08 215 2 gusting 6 32.2
2017-Aug-18 08:58 125 2 gusting 13 32.8
2017-Aug-18 08:48 155 4 gusting 12 32.8
2017-Aug-18 08:38 118 5 gusting 13 32.8
2017-Aug-18 08:28 230 2 gusting 10 31.7
2017-Aug-18 08:18 238 4 gusting 10 31.7
2017-Aug-18 08:08 197 2 gusting 12 31.1
2017-Aug-18 07:58 275 4 gusting 11 31.1
2017-Aug-18 07:48 275 2 gusting 11 30.6
2017-Aug-18 07:38 220 5 gusting 11 30.0
2017-Aug-18 07:28 248 4 gusting 11 29.4
2017-Aug-18 07:18 301 4 gusting 13 29.4
2017-Aug-18 07:08 273 6 gusting 13 28.9
2017-Aug-18 06:58 240 4 gusting 11 28.9
2017-Aug-18 06:48 264 2 gusting 11 28.3
2017-Aug-18 06:38 124 4 gusting 12 27.8
2017-Aug-18 06:28 313 4 gusting 11 27.2
2017-Aug-18 06:18 277 7 gusting 13 27.2
2017-Aug-18 06:08 279 4 gusting 14 26.7
2017-Aug-18 05:58 286 2 gusting 10 26.7
2017-Aug-18 05:48 281 4 gusting 11 26.7
2017-Aug-18 05:38 300 4 gusting 13 26.1
2017-Aug-18 05:28 305 5 gusting 10 26.1
2017-Aug-18 05:18 263 4 gusting 10 26.1
2017-Aug-18 05:08 008 2 gusting 12 27.2
2017-Aug-18 04:58 019 2 gusting 7 27.2
2017-Aug-18 04:48 312 1 gusting 10 27.2
2017-Aug-18 04:38 317 6 gusting 13 27.2
2017-Aug-18 04:28 009 6 gusting 12 27.8
2017-Aug-18 04:18 358 7 gusting 13 27.8
2017-Aug-18 04:08 321 6 gusting 13 27.8
2017-Aug-18 03:58 355 6 gusting 12 27.8
2017-Aug-18 03:48 348 8 gusting 13 27.8
2017-Aug-18 03:38 357 6 gusting 13 27.2
2017-Aug-18 03:28 340 7 gusting 14 27.2
2017-Aug-18 03:18 003 8 gusting 14 27.2
2017-Aug-18 03:08 358 6 gusting 15 27.2
2017-Aug-18 02:58 005 7 gusting 12 27.2
2017-Aug-18 02:48 005 6 gusting 13 27.2
2017-Aug-18 02:38 005 6 gusting 13 27.8
2017-Aug-18 02:28 352 5 gusting 10 27.8
2017-Aug-18 02:18 034 3 gusting 10 27.8
2017-Aug-18 02:08 035 5 gusting 13 27.8
2017-Aug-18 01:58 27.8
2017-Aug-18 01:48 27.8
2017-Aug-18 01:38 345 4 gusting 10 27.8
2017-Aug-18 01:28 351 5 gusting 12 27.8
2017-Aug-18 01:18 347 5 gusting 10 28.3
2017-Aug-18 01:08 012 3 gusting 10 28.3
2017-Aug-18 00:58 004 4 gusting 8 28.3
2017-Aug-18 00:48 28.3
2017-Aug-18 00:38 358 2 gusting 7 28.3
2017-Aug-18 00:28 353 2 gusting 7 28.3
2017-Aug-18 00:18 024 2 gusting 7 28.3
2017-Aug-18 00:08 346 3 gusting 6 28.3
2017-Aug-17 23:58 007 3 gusting 8 28.3
2017-Aug-17 23:48 347 2 gusting 6 28.3
2017-Aug-17 23:38 354 0 gusting 5 28.3
2017-Aug-17 23:28 013 0 gusting 2 28.9
2017-Aug-17 23:18 015 0 gusting 5 28.9
2017-Aug-17 23:08 002 0 gusting 5 28.9
2017-Aug-17 22:58 354 1 gusting 5 28.9
2017-Aug-17 22:48 005 1 gusting 5 28.9
2017-Aug-17 22:38 326 1 gusting 6 29.4
2017-Aug-17 22:28 340 1 gusting 6 29.4
2017-Aug-17 22:18 338 4 gusting 8 29.4
2017-Aug-17 22:08 348 3 gusting 8 29.4
2017-Aug-17 21:58 009 1 gusting 8 29.4
2017-Aug-17 21:48 356 4 gusting 10 29.4
2017-Aug-17 21:38 340 5 gusting 12 29.4
2017-Aug-17 21:28 329 4 gusting 10 29.4
2017-Aug-17 21:18 007 5 gusting 8 29.4
2017-Aug-17 21:08 026 4 gusting 7 29.4
2017-Aug-17 20:58 040 1 gusting 8 29.4
2017-Aug-17 20:48 037 2 gusting 6 29.4
2017-Aug-17 20:38 003 1 gusting 5 29.4
2017-Aug-17 20:28 032 0 gusting 4 29.4
2017-Aug-17 20:18 358 0 gusting 4 29.4
2017-Aug-17 20:08 021 1 gusting 6 30.0
2017-Aug-17 19:58 351 2 gusting 8 30.0
2017-Aug-17 19:48 030 2 gusting 6 30.0
2017-Aug-17 19:38 028 2 gusting 7 30.0
2017-Aug-17 19:28 033 2 gusting 7 30.0
2017-Aug-17 19:18 032 1 gusting 5 30.0
2017-Aug-17 19:08 013 1 gusting 6 30.6
2017-Aug-17 18:58 028 3 gusting 7 30.6
2017-Aug-17 18:48 025 4 gusting 7 30.6
2017-Aug-17 18:38 054 4 gusting 7 30.6
2017-Aug-17 18:28 033 5 gusting 8 30.6
2017-Aug-17 18:18 025 4 gusting 7 30.6
2017-Aug-17 18:08 060 3 gusting 7 30.6
2017-Aug-17 17:58 044 0 gusting 2 30.0
2017-Aug-17 17:48 057 30.0
2017-Aug-17 17:38 061 30.0
2017-Aug-17 17:28 023 30.0
2017-Aug-17 17:18 023 30.0
2017-Aug-17 17:08 023 30.0
2017-Aug-17 16:58 023 30.0
2017-Aug-17 16:48 023 30.0
2017-Aug-17 16:38 023 30.0
2017-Aug-17 16:28 023 0 gusting 0 30.0
2017-Aug-17 16:18 023 30.0
2017-Aug-17 16:08 138 30.0
2017-Aug-17 15:58 148 30.0
2017-Aug-17 15:48 148 30.0
2017-Aug-17 15:38 245 30.6
2017-Aug-17 15:28 245 31.7
2017-Aug-17 15:18 246 31.7
2017-Aug-17 15:08 246 31.7
2017-Aug-17 14:58 246 31.7
2017-Aug-17 14:48 246 31.1
2017-Aug-17 14:38 246 31.1
2017-Aug-17 14:28 245 31.1
2017-Aug-17 14:18 219 0 gusting 4 30.6
2017-Aug-17 14:08 151 0 gusting 4 31.7
2017-Aug-17 13:58 234 31.7
2017-Aug-17 13:48 215 1 gusting 5 31.1
2017-Aug-17 13:38 231 2 gusting 5 30.6
2017-Aug-17 13:28 150 1 gusting 2 31.1
2017-Aug-17 13:18 178 0 gusting 2 31.1
2017-Aug-17 13:08 220 1 gusting 6 30.6
2017-Aug-17 12:58 213 2 gusting 5 31.1
2017-Aug-17 12:48 223 0 gusting 2 31.7
2017-Aug-17 12:38 218 0 gusting 4 31.7
2017-Aug-17 12:28 248 3 gusting 6 31.7
2017-Aug-17 12:18 225 1 gusting 5 31.1
2017-Aug-17 12:08 219 1 gusting 5 31.7
2017-Aug-17 11:58 223 4 gusting 7 31.1
2017-Aug-17 11:48 201 3 gusting 7 30.6
2017-Aug-17 11:38 214 2 gusting 6 31.7
2017-Aug-17 11:28 190 3 gusting 6 32.2
2017-Aug-17 11:18 227 5 gusting 7 31.7
2017-Aug-17 11:08 214 3 gusting 6 31.1
2017-Aug-17 10:58 212 3 gusting 5 31.7
2017-Aug-17 10:48 160 1 gusting 5 32.2
2017-Aug-17 10:38 224 2 gusting 6 31.7
2017-Aug-17 10:28 250 4 gusting 6 31.1
2017-Aug-17 10:18 241 4 gusting 6 31.7
2017-Aug-17 10:08 248 4 gusting 6 31.7
2017-Aug-17 09:58 175 0 gusting 4 31.7
2017-Aug-17 09:48 234 2 gusting 5 31.1
2017-Aug-17 09:38 244 4 gusting 6 31.7
2017-Aug-17 09:28 144 0 gusting 6 31.1
2017-Aug-17 09:18 225 4 gusting 6 31.7
2017-Aug-17 09:08 172 2 gusting 6 31.1